Location: Milton Keynes
(52.0316°N, 0.7531°W)
Time: 23:46:17
(UTC+00:00)

ATV-4 - Visible Passes

Search period start: 23 January 2019 00:00
Search period end: 02 February 2019 00:00
Orbit: 308 x 318 km, 51.6° (Epoch: 02 November)

Date Brightness Start Highest point End Pass type
(mag) Time Alt. Az. Time Alt. Az. Time Alt. Az.
23 Jan 6.8 18:06:41 10° WNW 18:16:51 24° WSW 18:31:07 10° SSW visible
24 Jan 7.0 18:09:08 10° W 18:18:46 22° WSW 18:31:55 10° SSW visible
25 Jan 7.1 18:12:04 10° W 18:21:00 19° WSW 18:32:52 10° SSW visible
26 Jan 7.3 18:15:32 10° W 18:23:36 17° WSW 18:33:53 10° SSW visible
27 Jan 7.4 18:19:41 10° W 18:26:31 14° WSW 18:34:50 10° SW visible
28 Jan 7.5 18:24:51 10° W 18:29:44 12° WSW 18:35:21 10° SW visible
29 Jan 5.3 07:07:13 10° SE 07:08:19 11° ESE 07:09:32 10° ESE visible
